Location: Unspecified
(48.7670°N, 0.0000°E)
Time: 16:18:56
(UTC+00:00)

deb Explorer IX - Pass Details

Date: 16 June 2019
Orbit: 539 x 1112 km, 38.8° (Epoch: 19 July)

Event Time Altitude Azimuth Distance (km) Brightness Sun altitude
Rises 20:51:34 0° 266° (W) 3,720 ? -6.4°
Reaches altitude 10° 20:55:16 10° 249° (WSW) 2,662 ? -6.9°
Maximum altitude 20:59:15 17° 210° (SSW) 2,049 ? -7.3°
Drops below altitude 10° 21:02:54 10° 170° (S) 2,396 ? -7.7°
Enters shadow 21:03:50 - 163° (SSE) 2,610 ? -7.8°
